Location: Ladirat
(44.8151°N, 1.9702°E)
Time: 07:52:55
(UTC+00:00)

Cosmos 2360 Rocket - Pass Details

Date: 15 May 2026
Orbit: 831 x 845 km, 71.0° (Epoch: 6 June)

Event Time Altitude Azimuth Distance (km) Brightness Sun altitude
Rises 20:01:46 0° 342° (NNW) 3,415 6.4 -8.0°
Reaches altitude 10° 20:04:48 10° 357° (N) 2,476 5.3 -8.4°
Maximum altitude 20:09:11 22° 48° (NE) 1,762 3.8 -9.0°
Drops below altitude 10° 20:13:31 10° 98° (E) 2,464 4.1 -9.6°
Enters shadow 20:13:59 - 101° (ESE) 2,598 4.2 -9.7°
